Regional Weather Roundup
Issued by NWS

Home | Current Version | Previous Version | Text Only | Print | Product List | Glossary Off
Versions: 1 2 3 4 5 6 7 8 9 10 11 12 13 14 15 16 17 18 19 20 21 22 23 24 25 26 27 28 29 30 31 32 33 34 35 36 37 38 39 40 41 42 43 44 45 46 47 48 49 50

000
ASUS43 KDTX 290801
RWRMI
MICHIGAN HOURLY REGIONAL WEATHER ROUNDUP
NATIONAL WEATHER SERVICE DETROIT/PONTIAC MI
300 AM EST THU JAN 29 2015

NOTE: "FAIR" INDICATES FEW OR NO CLOUDS BELOW 12,000 FEET WITH NO
SIGNIFICANT WEATHER AND/OR OBSTRUCTION TO VISIBILITY.

MIZ047>049-052>055-059>063-066>070-074>076-081>083-290900-
SOUTHEAST LOWER MICHIGAN

CITY           SKY/WX    TMP DP  RH WIND       PRES   REMARKS
ADRIAN         CLOUDY    27  18  69 S13       29.98F WCI  16
ALMA           CLOUDY    27  18  70 SE7       29.93F WCI  19
ANN ARBOR      CLOUDY    25  16  68 SE10      29.98F WCI  15
BAD AXE        CLOUDY    25  16  69 S15       30.00F WCI  12
CARO           CLOUDY    26  15  62 SE10      29.95F WCI  17
DETROIT CITY   CLOUDY    28  15  58 SE13      30.04F WCI  17
DETROIT        CLOUDY    26  16  65 SE7       30.03F WCI  18
FLINT          CLOUDY    29  16  58 SE16      29.95F WCI  17
GROSSE ILE     CLOUDY    27  18  69 SE10G17   30.02F WCI  17
HILLSDALE      CLOUDY    26  18  72 S13G18    29.91F WCI  15
HOWELL         CLOUDY    26  16  64 SE15G24   29.93F WCI  14

CITY           SKY/WX    TMP DP  RH WIND       PRES   REMARKS
JACKSON        CLOUDY    29  17  61 S15G24    29.92F WCI  18
LAMBERTVILLE   CLOUDY    30  19  64 SE8       30.00F WCI  23
LANSING        CLOUDY    27  17  66 S15       29.91F WCI  15
LAPEER         CLOUDY    26  15  62 SE12      29.98F WCI  15
MASON          CLOUDY    26  17  69 S13       29.92F WCI  15
MONROE         CLOUDY    27  19  74 SE9       30.01F WCI  17
MT. CLEMENS    CLOUDY    26  18  72 SE12      30.03F WCI  15
PONTIAC        CLOUDY    25  15  66 SE13      29.97F WCI  14
PORT HOPE        N/A     26  14  60 SE13G23   29.99F WCI  15
PORT HURON     CLOUDY    25  16  68 S12G17    30.07F WCI  14
TRI CITIES     CLOUDY    29  16  58 S9        29.95F WCI  20
TROY           CLOUDY    28  15  57 SE6       30.04F WCI  22
SAGINAW HB     CLOUDY    30  18  59 SE13      29.93F WCI  20
$$
MIZ043>046-050>051-056>058-064>065-071>073-077>080-290900-
SOUTHWEST LOWER MICHIGAN

CITY           SKY/WX    TMP DP  RH WIND       PRES   REMARKS
BATTLE CREEK   MIX PCPN  31  21  66 S15       29.87F WCI  20
BENTON HARBOR  CLOUDY    31  25  78 S12       29.82F WCI  22
BIG RAPIDS     CLOUDY    27  18  67 SE10      29.86F WCI  17
COLDWATER      FLURRIES  30  20  66 S14       29.90F WCI  20
FREMONT        CLOUDY    28  15  59 SE5       29.85F WCI  22
HOLLAND        MIX PCPN  31  23  72 SE12      29.85F WCI  22
GRAND RAPIDS   MIX PCPN  29  21  72 S10       29.88F WCI  20
IONIA          MIX PCPN  29  20  67 S10       29.89S WCI  20
KALAMAZOO      CLOUDY    30  22  72 S9        29.87F WCI  22
LUDINGTON      LGT SNOW  31  19  60 S8        29.84F WCI  23
MARSHALL       MIX PCPN  28  20  70 S9G16     29.90F WCI  19
MOUNT PLEASANT CLOUDY    26  17  70 SE6       29.92F WCI  19
MUSKEGON       MIX PCPN  29  21  72 SE9       29.85F WCI  20
SOUTH HAVEN    CLOUDY    32  26  77 S9        29.83F WCI  24
$$
MIZ016>042-290900-
NORTHERN LOWER MICHIGAN

CITY           SKY/WX    TMP DP  RH WIND       PRES   REMARKS
ALPENA         CLOUDY    25  12  58 S12       29.94F WCI  14
BEAVER ISLAND  CLOUDY    29  15  55 CALM      29.85F
BELLAIRE       CLOUDY    29  13  50 S9        29.87F WCI  21
CADILLAC       CLOUDY    24  14  66 SE10      29.84F WCI  14
CHARLEVOIX     CLOUDY    29  12  49 S10G16    29.88F WCI  20
FRANKFORT      CLOUDY    30  16  55 SE7       29.84F WCI  23
GAYLORD        CLOUDY    24  10  55 S12       29.85F WCI  13
GRAYLING       CLOUDY    26  11  55 S8        29.88F WCI  17
HARBOR SPRINGS CLOUDY    28  13  51 CALM      29.86F
HOUGHTON LAKE    N/A     25  12  58 S9        29.89F WCI  15
MANISTEE       CLOUDY    30  12  47 SE10      29.85S WCI  21
OSCODA         CLOUDY    26  15  65 SE12G17   29.96F WCI  15
PELLSTON       CLOUDY    28  11  48 SE7       29.87F WCI  21
ROGERS CITY    CLOUDY    27  16  63 S15G22    29.89F WCI  15
TRAVERSE CITY  CLOUDY    29  12  49 S7        29.85F WCI  22
$$
MIZ007>008-015-290900-
EASTERN UPPER MICHIGAN

CITY           SKY/WX    TMP DP  RH WIND       PRES   REMARKS
KINROSS        CLOUDY    27  18  69 SE9       29.88S WCI  17
MACKINAC ISLAN CLOUDY    28  11  50 SE5       29.86F WCI  23
NEWBERRY       CLOUDY    25  15  66 SE7       29.84F WCI  17
S. S. MARIE    CLOUDY    26  16  65 E5        29.89F WCI  20
MUNISING         N/A     30  21  69 S7        29.81F WCI  23
$$
MIZ004>006-011>014-085-290900-
CENTRAL UPPER MICHIGAN

CITY           SKY/WX    TMP DP  RH WIND       PRES   REMARKS
MANISTIQUE     CLOUDY    30  21  70 SE9       29.83F WCI  21
ESCANABA       CLOUDY    30  25  80 S7        29.82F WCI  23
MENOMINEE      CLOUDY    30  25  80 CALM      29.80S
SAWYER-GWINN   LGT SNOW  27  22  83 S7        29.78S WCI  19
$$
MIZ001>003-009>011-084-290900-
WESTERN UPPER MICHIGAN

CITY           SKY/WX    TMP DP  RH WIND       PRES   REMARKS
IRON MOUNTAIN  CLOUDY    27  25  92 CALM      29.78S FOG
HOUGHTON       CLOUDY    27  24  89 S3        29.76S
COPPER HARBOR    N/A     30  26  85 SW7       29.77F WCI  23
IRONWOOD       CLOUDY    27  27 100 W8        29.77S WCI  18
$$

ABBREVIATIONS USED IN REMARKS
   TC - TEMPERATURE IN CELSIUS
  WCI - WIND CHILL INDEX
   HX - HEAT INDEX
  VSB - VISIBILITY




USA.gov is the U.S. government's official web portal to all federal, state and local government web resources and services.